GFSGBSN_925_thetae_132.txt.gz
Theta_e
306 307 304 304 302 302 301 301 301 301 301 301 302 302 303 303 304 305 306 308 316 314 312 313 313 315 316 317 314 327 321 317 319 320 318 322 329 328 327 324 322 323 325 327 323 321 326
308 307 306 306 305 301 301 301 301 301 301 301 302 302 303 303 304 305 306 309 316 314 313 315 315 314 323 328 330 326 316 320 321 319 318 325 329 327 326 322 322 324 327 327 322 323 325
308 307 305 308 306 302 301 301 301 301 302 302 302 303 303 303 304 305 306 310 317 315 313 315 315 322 325 322 328 324 318 321 320 320 318 322 327 327 324 324 322 328 328 323 323 324 326
309 309 307 308 307 304 302 302 302 302 302 302 303 303 303 304 304 305 307 315 318 315 314 316 316 321 317 328 329 322 320 318 319 318 322 325 326 325 322 323 324 324 321 323 323 323 323
310 309 308 308 307 304 302 302 302 303 303 303 303 303 304 304 305 306 308 321 317 315 316 316 327 324 328 328 324 323 319 320 319 317 318 321 322 321 322 324 323 319 325 325 323 322 325
309 309 308 307 307 304 302 302 302 303 303 303 303 303 304 305 305 306 315 319 318 319 322 323 324 326 327 328 329 326 322 322 324 323 324 323 316 319 317 321 324 325 324 322 323 323 326
308 307 306 307 306 304 303 302 302 302 303 303 303 304 305 305 305 307 319 322 313 317 325 316 316 323 326 328 327 325 325 325 324 322 325 322 322 323 322 321 323 325 325 323 323 323 330
306 306 306 306 305 304 303 303 302 302 302 303 303 304 305 306 306 314 319 319 319 319 319 318 322 322 324 325 324 324 325 323 323 324 322 321 323 323 323 322 323 324 325 325 325 323 326
307 306 306 306 304 304 303 303 303 302 302 303 303 303 304 306 307 318 309 321 318 318 318 319 321 323 323 324 324 322 322 322 324 324 321 320 322 322 325 325 324 323 324 325 326 324 323
307 306 305 305 303 303 302 303 303 303 303 303 303 303 304 305 310 306 315 321 316 319 318 321 322 322 321 322 325 321 323 323 324 324 321 322 322 324 325 325 322 325 324 324 324 322 325
305 304 305 305 304 304 303 303 303 303 303 303 303 303 304 304 306 308 317 313 321 319 323 324 323 322 319 322 322 321 323 323 324 323 320 322 323 324 325 326 322 325 323 324 323 320 322
305 303 304 304 304 304 303 302 303 303 303 303 303 304 303 306 307 309 310 320 321 321 325 327 322 322 322 322 322 321 323 322 322 323 321 321 321 323 325 323 324 321 322 320 320 318 324
305 304 303 303 304 304 304 302 302 303 303 303 304 304 303 304 306 311 313 318 322 325 323 327 321 320 322 321 323 322 322 322 320 321 321 321 323 322 324 325 323 321 321 324 323 326 327
305 305 304 303 304 304 304 302 302 303 303 303 304 305 307 307 309 307 313 321 328 323 324 323 319 318 322 320 322 321 319 321 319 318 317 321 324 324 323 323 323 323 321 323 329 326 324
305 305 303 303 303 303 304 302 302 303 303 303 304 306 309 310 308 311 317 323 322 323 326 321 320 321 321 320 321 321 319 318 319 317 320 320 323 324 324 324 323 324 324 320 320 318 322
304 303 302 303 303 304 304 301 302 302 302 303 303 307 309 315 312 312 316 319 322 322 320 320 322 320 319 319 320 319 319 319 320 317 317 320 325 325 324 323 321 323 319 324 319 326 327
303 303 302 302 303 305 303 301 302 302 302 303 302 303 312 312 314 312 315 313 318 318 319 320 322 323 320 323 317 317 319 320 320 317 318 319 321 324 325 324 324 323 323 318 317 318 324
303 303 302 302 303 304 302 302 302 302 302 304 297 304 311 314 314 308 314 315 317 319 317 317 318 320 320 320 323 322 322 322 324 317 319 319 318 323 324 322 321 323 322 320 324 325 320
304 303 303 302 303 303 303 303 302 302 302 303 299 299 315 314 315 313 313 316 317 318 316 318 320 320 319 319 321 322 325 325 323 319 320 319 318 322 324 322 322 326 324 318 317 318 323
303 303 303 302 303 303 304 304 302 302 302 305 304 316 313 309 309 314 318 319 318 318 315 319 320 321 322 323 318 321 326 324 323 327 334 324 317 320 325 324 321 323 323 322 322 324 323
303 303 302 303 303 303 303 304 302 302 302 306 307 315 310 316 316 315 314 317 323 319 318 316 318 320 320 322 323 326 324 324 323 325 319 319 323 324 322 323 322 321 323 321 322 320 324
302 303 302 303 303 303 304 304 302 302 302 307 308 309 307 309 310 313 312 316 318 318 317 319 322 324 319 319 319 323 323 324 325 322 319 315 322 322 323 325 323 325 324 323 323 320 321
302 303 302 302 303 303 304 304 303 302 302 301 302 304 305 309 311 313 314 315 317 316 318 321 323 322 323 324 322 322 319 317 321 322 318 319 318 319 323 325 325 325 324 324 322 320 321
302 302 302 302 303 303 304 304 304 303 303 303 301 301 306 310 312 314 315 315 316 316 317 318 319 321 320 317 318 316 315 318 317 315 316 320 318 317 322 324 328 322 321 322 323 323 321
302 302 302 302 303 303 304 304 304 303 303 302 302 301 305 308 310 312 314 314 313 312 317 318 318 315 311 316 318 320 319 322 320 314 316 316 318 321 325 324 323 326 325 323 326 325 328
302 302 302 302 303 304 304 304 304 303 303 302 302 302 302 307 303 310 312 312 313 312 315 319 314 310 312 314 318 321 324 322 323 320 314 314 313 320 320 325 327 323 323 323 323 326 327
302 302 302 302 303 304 303 302 304 304 303 302 302 302 303 307 307 310 311 312 311 311 312 312 312 314 312 313 318 320 320 320 322 320 319 316 317 319 323 323 321 320 324 323 328 324 320
303 303 303 303 301 302 302 303 302 304 303 302 302 302 303 305 305 308 309 310 308 309 313 311 314 313 316 317 316 316 317 318 317 317 318 317 317 320 319 322 324 322 326 328 322 323 324
303 303 303 301 302 302 302 303 302 303 303 302 301 301 302 301 305 307 308 309 310 309 307 306 311 311 312 315 315 317 323 319 317 322 317 321 317 319 320 320 319 321 323 322 322 324 326

GFSGBSN_925_thetae_135.txt.gz
Theta_e
308 308 307 308 305 303 301 302 302 302 302 302 303 303 303 303 304 305 305 307 313 315 313 312 313 315 316 317 319 324 322 314 317 320 319 323 330 330 328 327 325 327 328 330 329 324 332
310 309 307 309 306 303 302 302 302 302 303 303 303 303 304 304 304 305 306 308 313 315 313 314 314 315 323 329 330 320 315 315 319 319 318 326 331 330 328 326 326 325 328 330 325 329 336
311 310 309 309 308 304 303 302 302 303 303 303 303 303 304 304 304 305 306 308 315 315 314 315 315 321 322 325 326 316 320 320 319 319 319 322 328 329 327 328 325 329 332 328 326 328 334
310 310 308 308 308 305 302 302 302 302 303 303 303 304 304 305 305 305 307 317 318 315 314 317 316 320 321 325 328 318 320 320 319 319 321 324 326 327 327 326 327 329 328 329 326 329 329
308 307 308 308 308 306 303 302 302 302 302 303 303 304 304 305 305 306 308 318 315 314 315 316 326 325 328 327 323 321 319 319 317 318 319 321 324 325 326 329 330 328 329 329 328 325 331
307 307 308 308 308 306 303 303 302 302 302 302 303 303 304 305 305 306 315 318 316 318 320 323 324 329 329 328 328 321 319 319 323 320 325 325 324 327 326 329 332 330 330 328 329 327 331
308 307 307 307 306 304 303 302 303 302 302 302 303 303 304 305 305 307 320 321 320 321 325 322 317 325 327 326 326 324 323 324 325 327 329 325 328 328 327 329 328 328 328 329 327 326 330
307 307 307 307 306 304 303 302 302 303 303 303 303 303 304 305 306 314 318 320 321 319 325 321 322 321 322 324 328 325 324 327 327 328 326 328 330 329 326 325 326 328 329 329 327 327 332
306 305 306 306 305 304 304 303 302 302 302 303 303 303 304 305 306 315 307 315 319 316 323 323 322 324 324 325 326 327 326 325 326 327 327 330 327 325 326 327 328 327 329 329 329 333 336
306 305 304 305 304 304 304 304 302 302 303 303 303 303 304 304 309 306 311 320 312 317 327 325 324 325 325 325 327 323 326 327 326 328 326 328 326 325 326 327 327 330 326 327 327 330 334
306 305 305 303 304 304 304 304 303 302 303 303 303 303 303 303 306 310 316 309 318 319 328 323 324 321 323 327 325 323 323 325 327 327 326 327 325 325 327 328 327 329 326 327 326 328 331
305 305 305 303 303 304 304 304 302 302 303 303 303 304 303 305 306 307 308 316 319 327 329 327 324 324 325 324 323 323 326 325 325 325 324 326 323 325 328 325 326 326 329 329 329 329 331
305 305 305 302 303 303 304 304 302 302 302 303 303 304 303 304 308 308 310 321 328 329 325 327 325 324 327 326 323 324 326 327 327 328 328 325 325 324 326 328 325 327 330 332 332 333 332
303 305 303 302 302 304 305 303 301 302 302 302 304 304 305 306 308 307 309 328 331 326 326 324 321 324 327 325 326 323 326 328 323 324 326 327 327 326 325 328 330 328 330 331 334 332 331
304 303 303 302 302 303 305 303 302 302 302 303 304 304 307 309 309 310 323 329 328 327 327 323 321 326 326 324 326 325 326 326 326 324 327 327 327 325 325 326 328 329 331 327 331 327 331
304 304 303 302 302 302 303 302 302 302 302 303 304 303 306 312 313 312 324 325 327 323 323 321 326 324 327 325 324 326 325 325 325 323 325 327 329 327 325 326 325 330 326 331 331 336 334
303 304 304 302 302 304 303 303 303 302 302 303 301 306 311 310 309 318 322 323 321 321 322 322 324 325 324 324 325 325 325 324 323 322 323 325 329 329 327 329 331 328 330 328 330 331 332
303 303 304 303 302 303 303 303 303 302 302 303 303 309 311 310 319 316 318 319 318 320 319 319 320 323 324 325 324 325 326 325 321 322 324 326 328 329 330 326 325 327 332 333 334 337 331
304 303 303 303 302 303 303 303 304 302 303 303 309 306 312 312 321 321 318 318 319 320 320 319 322 322 322 325 329 326 324 325 323 323 326 325 328 329 331 328 327 330 328 329 331 332 337
303 303 303 303 302 303 303 303 304 302 302 303 311 321 319 316 316 318 320 321 321 319 319 318 322 323 324 324 325 327 329 325 326 328 331 328 328 331 328 330 331 331 330 328 332 335 335
302 302 302 303 302 303 303 304 304 302 302 305 312 319 313 322 320 320 317 321 323 325 320 319 322 323 326 328 328 329 328 326 326 331 324 330 336 329 327 326 327 329 329 329 332 333 334
302 302 302 303 303 302 303 304 304 302 302 305 312 314 312 315 314 317 315 321 321 321 321 322 325 323 323 328 329 330 329 330 331 325 327 324 335 330 329 326 326 327 328 329 327 326 327
302 302 302 303 303 302 303 304 303 303 302 303 302 304 310 312 316 317 319 319 319 319 322 322 324 326 324 326 325 324 324 325 329 331 329 332 331 332 333 329 329 330 329 328 329 327 328
302 302 302 302 302 302 303 304 303 303 303 303 301 302 312 315 316 318 317 316 318 319 322 321 322 325 321 318 320 322 323 324 325 324 325 331 333 331 332 331 333 331 326 328 329 328 328
302 302 302 302 301 303 304 304 303 304 303 303 302 303 309 313 314 314 316 317 317 317 319 321 320 318 316 321 327 330 329 329 325 323 326 326 331 332 336 333 329 329 329 328 329 331 330
302 302 302 301 302 303 304 304 303 304 303 302 302 302 305 313 308 312 315 315 318 319 320 321 318 316 317 324 327 334 332 332 330 326 321 324 331 332 332 332 332 332 327 328 327 331 331
302 302 302 303 303 302 303 303 303 304 303 302 302 302 304 311 311 311 314 316 315 316 319 317 317 321 318 325 328 328 328 325 330 331 330 328 328 331 333 332 330 327 329 328 332 332 333
303 303 303 303 303 301 301 302 303 303 303 303 302 301 303 307 309 309 311 313 312 314 318 315 320 320 324 327 327 326 327 326 326 326 327 330 330 329 329 330 330 327 329 331 330 330 331
301 302 303 303 302 302 302 302 303 303 303 303 301 301 301 304 308 306 308 308 310 310 311 311 316 317 317 323 323 323 327 325 327 328 323 327 326 328 329 328 328 325 324 323 326 329 328

GFSGBSN_925_thetae_138.txt.gz
Theta_e
310 310 309 309 306 304 302 303 303 303 303 303 303 304 304 304 305 305 305 307 308 316 314 313 313 314 318 325 326 332 324 315 322 320 322 324 330 333 332 331 332 333 332 332 330 328 332
311 309 310 309 308 305 303 302 303 303 303 303 303 304 304 304 305 305 306 307 311 316 314 314 314 315 327 327 333 326 322 322 321 321 322 326 332 332 331 331 332 332 333 332 329 334 338
309 309 309 309 307 305 303 302 302 302 303 303 303 303 304 304 305 305 306 308 320 317 314 315 315 322 326 328 330 322 318 319 321 322 323 330 330 331 331 332 330 333 334 332 330 333 338
308 309 309 309 308 304 302 302 302 302 302 303 303 303 304 305 305 305 306 315 317 315 315 316 317 326 326 326 329 320 321 321 321 321 322 327 329 331 332 331 332 334 334 333 330 332 337
309 309 308 309 308 305 303 302 302 302 302 303 303 303 304 305 305 306 307 317 315 315 315 317 329 329 329 326 326 322 322 323 322 322 325 325 329 331 330 333 333 333 333 332 330 331 334
308 308 308 308 308 306 304 303 302 302 302 303 303 304 304 304 305 306 310 318 316 318 320 325 326 331 331 332 328 323 322 322 321 324 327 329 330 331 332 333 332 332 332 331 331 331 332
307 307 307 307 307 305 305 304 303 302 302 303 303 304 304 304 305 306 318 325 329 330 329 329 323 327 331 330 325 323 322 323 323 327 328 330 329 331 332 332 333 332 332 332 332 331 331
307 307 307 306 305 304 304 304 304 303 303 303 303 304 304 305 305 312 319 327 325 321 328 328 327 325 326 329 328 327 326 328 328 328 329 329 328 329 330 330 332 332 333 333 331 330 331
306 306 306 306 303 304 304 304 304 303 303 303 303 303 304 305 306 316 313 316 320 318 329 328 326 326 328 328 329 329 329 329 328 329 329 329 330 331 331 331 332 333 333 333 333 332 332
306 306 306 306 302 303 304 305 304 302 302 303 303 303 303 305 312 311 315 321 315 317 330 329 327 328 327 329 328 329 329 328 329 330 329 331 330 329 330 331 332 333 331 331 332 334 334
305 305 306 305 302 303 304 306 303 302 302 303 303 303 303 304 309 314 318 313 318 322 330 327 327 326 329 329 329 328 329 329 330 331 331 332 330 329 331 331 331 332 330 331 331 332 333
305 304 305 303 302 302 304 306 303 302 302 302 303 303 303 311 311 311 311 312 322 330 329 328 326 327 329 329 328 328 329 330 330 330 331 330 328 329 331 330 330 331 332 333 332 332 333
304 304 304 303 302 302 303 303 302 303 302 302 302 304 304 308 313 310 312 323 331 332 328 329 327 327 329 329 328 328 329 330 330 331 331 330 329 329 330 330 330 331 332 334 334 333 333
304 304 304 303 303 302 303 303 303 303 302 302 303 304 308 307 311 311 312 329 332 328 328 327 327 327 329 330 328 328 330 331 330 330 331 331 330 329 330 331 331 331 331 333 336 334 335
304 304 304 304 303 302 303 303 303 303 302 302 303 309 310 313 311 311 316 330 331 330 328 328 327 328 329 330 329 328 329 330 330 329 331 331 330 329 330 331 331 332 332 332 334 333 332
304 304 304 304 304 302 302 303 303 304 302 303 307 309 311 313 314 314 318 324 329 328 328 326 329 329 329 330 329 329 329 329 329 329 329 330 332 329 329 330 330 332 332 332 333 336 336
304 304 304 304 304 303 302 303 303 304 302 304 309 312 315 314 312 317 318 321 325 326 327 326 328 330 330 329 329 330 330 328 329 329 329 329 330 332 330 331 331 331 332 332 333 334 334
304 304 303 303 303 303 302 303 304 304 302 307 312 315 314 313 317 315 316 319 320 323 324 326 324 327 329 330 330 329 330 329 327 328 328 329 329 334 330 331 331 332 332 333 333 338 334
304 303 303 302 303 303 302 303 304 304 303 305 314 314 317 316 319 317 317 318 321 321 322 324 325 325 328 329 331 329 329 328 326 328 329 329 329 332 333 332 331 332 332 333 333 336 336
302 302 302 302 303 303 302 303 304 304 303 305 314 320 321 319 321 324 317 319 318 319 320 321 323 326 328 328 330 331 329 329 327 327 329 332 329 331 332 332 331 333 332 333 333 335 335
302 302 302 302 302 303 302 303 304 303 302 306 316 320 320 324 321 323 324 321 319 319 321 322 321 322 327 330 329 331 330 331 330 333 328 330 333 333 331 330 330 330 332 332 333 333 334
301 301 302 302 302 303 302 303 304 303 303 308 314 318 319 321 323 324 320 324 323 320 324 322 323 322 322 330 331 331 332 333 333 331 332 332 338 337 332 331 329 329 329 330 333 332 333
302 302 302 302 302 302 302 303 304 304 304 307 308 310 314 318 322 323 323 324 324 325 325 327 327 328 326 326 330 330 331 333 334 335 336 335 339 340 335 333 332 333 332 332 333 333 333
301 302 302 302 302 302 302 303 305 304 303 306 307 307 315 314 319 323 321 322 323 324 327 326 327 330 327 325 326 328 329 331 333 334 335 340 341 337 335 337 338 334 333 331 332 332 332
301 302 302 302 302 301 302 304 304 303 304 305 306 308 314 315 314 320 320 321 322 323 323 326 325 325 324 327 331 333 332 332 332 331 333 334 338 334 335 336 333 333 333 332 333 333 332
303 302 302 302 302 302 303 304 304 303 304 305 305 306 310 315 312 314 318 320 324 324 325 325 323 324 325 330 331 334 331 330 332 331 330 333 339 334 334 332 333 331 334 332 332 334 336
303 303 303 302 302 303 303 302 303 303 304 305 305 304 308 314 313 315 316 319 319 322 325 325 324 327 325 330 331 330 328 331 332 332 333 333 334 333 332 334 330 333 333 331 335 337 336
301 302 303 303 303 303 302 302 302 303 303 304 305 304 306 311 312 312 313 316 316 319 324 322 325 326 329 331 330 330 331 331 331 332 333 333 334 332 332 334 335 332 332 334 337 335 335
301 301 301 302 303 302 302 302 302 303 303 303 305 303 304 307 310 309 309 310 311 312 315 318 322 325 325 330 330 331 330 331 331 333 330 334 334 333 332 334 335 332 334 333 333 335 333

GFSGBSN_925_thetae_141.txt.gz
Theta_e
310 310 311 310 308 304 302 303 303 303 303 303 303 303 304 304 305 305 305 306 308 311 316 314 313 313 319 329 331 335 325 315 318 330 324 326 329 335 336 335 335 334 332 332 331 331 338
310 310 310 310 308 307 303 302 302 302 303 303 303 303 304 304 305 305 306 307 311 318 317 314 314 314 327 331 334 332 324 319 323 325 324 326 329 336 336 335 335 333 333 331 331 333 336
310 309 310 309 309 306 305 304 302 302 303 303 303 303 304 304 305 305 306 307 317 318 316 315 314 321 330 331 332 326 323 322 323 323 325 325 332 334 335 335 334 333 334 331 332 334 337
309 309 309 310 309 306 305 304 303 302 302 303 303 304 304 304 305 305 306 308 315 315 315 316 316 327 333 328 330 322 321 322 323 324 325 328 332 334 335 335 334 334 334 331 332 334 335
308 308 308 309 309 307 304 304 304 303 303 303 303 304 304 304 305 306 307 312 315 315 316 316 327 330 330 329 329 324 323 323 323 324 325 329 330 334 335 335 335 333 334 334 331 334 334
308 309 308 308 307 305 305 304 304 304 303 303 303 304 304 305 305 306 307 319 321 318 321 326 328 332 332 332 329 325 324 324 325 325 327 329 330 334 335 335 336 333 334 333 332 332 333
308 308 308 308 305 303 304 305 305 304 303 303 303 303 304 305 305 306 310 326 334 334 331 332 328 327 332 332 328 325 324 325 325 326 327 329 329 332 334 334 334 335 333 332 333 332 332
307 307 307 307 304 303 304 305 306 303 303 303 303 303 304 305 305 307 318 330 329 325 329 331 330 326 331 331 328 326 324 325 324 326 328 330 330 331 332 333 333 334 332 332 333 333 332
306 306 305 306 304 303 303 304 306 303 302 303 303 303 304 305 306 317 321 320 324 324 329 329 330 329 330 331 329 327 325 327 325 327 329 331 330 330 330 331 332 333 333 335 334 332 332
305 304 305 305 303 303 303 303 304 303 303 303 303 303 303 305 313 316 317 324 324 322 329 329 330 329 328 330 330 328 326 329 329 329 330 331 332 331 331 331 333 333 333 333 333 333 334
305 305 305 304 303 303 303 303 303 303 303 303 303 303 303 305 311 315 319 321 320 326 331 329 329 328 328 331 331 330 328 330 331 331 331 331 333 332 331 332 332 334 333 332 333 333 334
305 304 304 305 304 303 302 303 303 303 304 303 303 303 303 312 315 315 315 317 323 331 329 329 329 328 328 330 331 331 330 331 331 331 332 332 332 331 331 332 332 333 333 332 332 332 334
305 304 304 304 305 305 303 302 303 303 304 303 302 303 304 309 315 314 314 320 330 332 328 329 329 329 328 330 331 331 332 331 332 333 333 333 331 331 332 333 332 332 332 335 335 334 334
305 305 305 304 304 304 304 302 303 303 304 303 303 304 311 311 313 313 315 324 332 330 330 329 329 328 329 330 330 330 331 332 332 332 333 333 332 330 331 333 332 332 333 335 340 337 338
305 305 305 304 304 304 304 303 303 303 304 303 304 312 313 314 314 314 318 323 331 331 329 329 330 328 328 329 330 330 331 331 332 332 332 333 333 331 331 332 333 333 333 333 334 335 337
305 305 304 304 304 303 304 303 303 303 304 304 308 313 314 316 316 315 318 319 326 329 330 329 329 330 330 329 330 330 331 331 331 331 332 334 334 332 331 332 332 333 334 333 333 337 339
306 305 304 304 303 303 303 303 303 304 304 305 312 317 317 316 317 317 316 319 321 327 330 329 329 331 330 329 331 331 330 330 331 331 331 332 333 333 332 331 332 332 334 334 334 336 337
305 304 303 303 303 302 303 303 302 304 304 308 312 318 318 318 319 317 317 319 320 323 328 329 329 330 332 331 331 332 332 331 330 331 331 331 332 335 333 332 331 332 332 332 334 337 336
303 303 302 302 302 303 303 303 302 304 304 306 314 316 317 319 320 318 318 319 320 323 325 326 327 328 330 332 333 331 331 331 330 330 332 332 331 332 336 333 332 332 334 333 334 335 338
302 302 302 302 302 302 302 303 302 304 304 305 314 319 317 321 321 322 322 319 320 321 324 324 326 328 329 331 333 333 331 330 330 329 338 333 331 333 333 335 333 333 332 333 334 337 336
302 302 302 302 302 302 303 303 302 304 303 306 315 317 324 326 322 320 323 323 320 322 322 323 325 325 328 332 333 333 333 331 329 331 330 330 333 332 331 333 333 332 332 332 334 334 335
302 302 302 302 302 302 302 303 302 304 303 309 315 319 320 322 324 327 320 325 323 321 322 322 323 324 325 330 334 333 333 333 332 331 331 330 334 333 332 331 332 331 332 333 332 332 332
302 302 302 302 302 302 303 303 302 305 304 311 311 311 314 315 320 324 326 325 325 324 323 324 324 325 324 326 330 334 333 334 334 334 334 332 332 336 336 334 333 333 332 331 331 331 332
301 301 302 302 302 303 302 302 303 305 304 307 309 310 313 315 317 321 322 324 323 325 326 325 326 329 330 330 330 331 331 333 335 335 334 335 341 338 338 335 338 335 333 334 333 333 334
302 302 302 303 302 302 302 302 304 304 304 306 308 310 315 316 317 318 323 325 325 326 326 329 327 330 331 331 329 330 332 333 335 335 336 335 339 337 337 335 336 336 337 334 334 334 333
303 303 303 303 302 302 303 303 304 304 303 306 308 308 312 316 316 317 321 323 325 325 326 326 327 328 329 328 327 330 333 333 335 334 334 335 338 339 337 337 337 335 336 334 333 336 337
303 302 302 303 303 303 302 303 302 303 303 305 306 308 309 315 315 316 317 322 324 326 327 326 327 329 330 329 328 328 329 331 332 334 335 334 337 338 336 336 335 337 335 333 336 339 338
301 301 301 302 303 303 303 303 302 303 303 304 306 307 308 312 314 314 314 318 321 323 328 328 328 329 330 331 329 328 329 330 331 331 334 336 335 333 332 333 334 337 335 334 343 341 339
299 299 300 300 301 303 302 302 302 303 303 303 306 306 306 309 312 309 311 312 314 316 319 323 328 332 330 330 330 330 330 333 333 332 336 337 335 335 340 335 341 335 341 341 339 340 338

GFSGBSN_925_thetae_144.txt.gz
Theta_e
311 311 311 310 307 303 302 302 302 303 303 303 303 303 304 304 305 305 306 306 307 313 315 316 314 312 319 328 329 330 326 322 318 321 327 330 328 332 337 336 335 335 332 332 332 337 338
310 310 310 310 309 305 303 302 302 302 303 303 303 304 304 304 305 305 306 307 308 318 317 316 314 313 324 333 335 331 324 318 320 322 330 326 328 333 337 335 334 334 333 332 331 335 338
310 310 310 309 308 305 304 303 303 303 303 303 303 304 304 304 305 305 306 307 308 316 315 315 314 319 331 331 333 331 324 320 322 324 327 326 328 333 336 335 335 332 332 331 332 334 338
309 310 309 309 307 304 304 304 303 303 303 303 303 304 304 304 305 305 306 307 310 315 315 315 315 326 333 330 331 326 324 322 324 324 325 326 328 334 336 336 334 334 334 330 332 334 338
309 309 309 309 309 305 304 305 305 304 303 303 304 304 304 305 305 305 307 307 315 315 316 315 322 329 332 329 331 324 324 324 325 325 326 326 330 334 336 336 334 334 334 333 332 334 336
308 308 309 309 308 304 303 304 305 305 303 303 303 304 304 305 305 306 307 310 322 317 322 325 327 333 330 333 330 325 324 324 325 326 326 328 330 332 335 335 336 334 334 334 333 332 334
308 308 308 308 306 304 303 303 304 304 303 303 303 304 304 305 306 305 307 322 334 331 331 331 328 329 332 332 330 326 325 325 325 326 325 328 328 331 334 335 336 335 334 336 333 332 333
308 307 306 307 304 304 303 303 303 303 303 303 303 303 304 305 306 306 310 323 330 328 328 333 332 330 331 332 331 327 326 326 325 325 326 329 328 330 332 334 334 334 334 333 333 333 332
307 305 305 305 305 304 303 303 303 303 303 304 303 303 303 305 306 311 319 323 321 323 328 328 330 331 329 333 330 328 327 326 325 325 326 329 329 331 331 332 333 333 333 333 333 333 332
305 305 305 305 305 305 305 303 303 303 303 303 304 303 303 304 312 315 318 325 323 325 328 327 328 330 328 332 330 329 327 326 327 325 327 329 332 330 330 331 331 332 333 334 334 334 332
306 306 305 305 305 305 305 305 303 303 303 303 304 303 303 303 309 315 318 320 323 326 330 327 329 330 330 329 331 331 327 326 329 327 328 330 330 331 330 331 331 332 333 333 334 334 334
306 306 305 305 305 304 304 304 304 303 303 303 303 303 303 309 313 316 317 317 322 330 329 329 330 329 329 329 331 331 328 327 330 332 331 331 332 333 332 331 332 333 334 334 332 333 335
306 306 305 305 305 304 304 304 304 303 303 303 303 304 303 307 313 315 316 318 326 330 327 328 330 329 328 329 331 331 330 328 330 332 332 332 332 333 331 331 332 333 334 335 334 333 333
306 306 305 305 305 304 304 303 304 303 303 303 303 304 308 310 311 313 314 320 327 328 328 329 330 330 328 329 331 330 332 330 330 331 333 333 333 333 332 332 333 332 334 334 342 339 337
303 304 305 305 304 304 303 303 304 303 303 303 304 311 313 317 316 315 318 319 326 328 328 329 330 330 329 328 330 331 332 332 330 331 334 334 332 333 331 332 333 333 334 333 334 335 339
303 304 305 305 304 303 303 303 304 303 303 304 308 312 315 316 317 316 318 319 323 325 328 330 330 331 330 329 329 330 331 332 332 331 332 333 334 333 331 331 332 333 333 333 334 341 343
303 303 304 303 302 302 302 303 303 303 303 306 312 318 319 316 318 317 316 318 320 322 326 328 331 330 331 330 329 330 331 331 331 331 331 332 334 334 333 331 331 332 333 335 333 334 336
303 303 303 303 302 302 302 302 303 303 304 308 311 316 318 318 321 320 317 317 318 321 323 325 330 331 331 331 331 329 330 331 331 331 332 331 332 336 334 333 332 332 333 335 338 343 338
303 303 303 302 302 302 302 302 303 303 304 306 313 315 317 320 321 320 319 318 318 320 322 324 328 330 331 331 334 331 330 332 331 331 333 334 333 334 335 334 332 331 332 332 333 335 342
304 302 302 302 302 302 302 302 303 303 303 306 312 317 318 320 322 322 322 319 319 320 321 323 325 329 329 330 332 335 331 332 332 331 341 335 332 337 334 337 334 335 331 332 333 338 337
302 302 302 302 302 303 303 303 302 303 303 306 312 315 318 322 321 323 322 323 323 321 321 322 324 326 327 330 330 333 333 333 332 339 333 332 340 336 331 333 334 333 332 332 333 334 337
304 303 303 303 303 302 302 303 303 302 304 307 311 316 316 318 321 326 326 322 324 325 322 322 323 325 326 329 330 332 333 335 334 331 331 331 338 336 333 332 332 334 334 333 331 332 333
303 303 301 301 301 302 303 303 302 302 305 309 313 313 315 316 317 319 324 326 321 325 326 323 323 325 325 326 328 331 333 334 335 334 336 334 336 340 337 332 332 334 334 333 334 334 333
303 302 302 302 302 302 303 303 302 303 305 307 309 311 314 315 315 317 319 324 326 324 326 325 324 325 326 329 329 329 331 334 334 335 333 340 348 340 336 340 340 334 333 333 332 333 333
303 302 303 303 303 303 303 303 303 303 305 305 307 310 313 315 316 317 319 320 324 325 326 326 329 328 332 332 331 331 330 334 335 335 335 334 341 336 339 337 337 335 335 335 334 334 334
302 302 303 303 303 303 303 302 303 303 304 305 306 308 312 314 316 317 319 322 326 327 327 326 329 330 330 331 330 337 331 334 336 337 338 335 341 339 339 338 342 340 340 336 335 340 335
301 301 302 302 302 303 304 303 303 303 302 305 306 307 310 313 313 315 319 319 322 326 328 327 328 328 328 330 330 329 329 331 336 338 340 339 340 342 343 341 337 340 336 335 339 342 339
300 299 300 301 301 302 303 304 303 303 303 305 306 307 308 311 312 313 315 317 319 323 327 329 330 327 328 328 328 327 327 330 335 339 343 340 340 339 341 343 343 339 336 337 351 348 341
300 300 300 299 300 300 302 303 302 302 303 303 306 307 308 308 310 308 309 310 312 316 320 321 327 333 331 330 328 329 329 329 335 336 337 341 338 339 340 345 349 344 349 348 345 347 343

GFSGBSN_925_thetae_147.txt.gz
Theta_e
311 311 310 310 307 304 303 302 302 303 303 303 303 304 304 304 305 305 305 306 307 308 318 316 315 313 317 327 327 328 324 324 321 319 320 324 330 326 325 330 333 333 329 329 332 340 340
310 310 310 310 306 304 304 304 303 303 303 303 304 304 304 305 305 305 305 306 307 308 317 315 314 313 320 329 331 332 325 321 321 318 322 324 328 324 326 330 332 331 330 328 330 339 341
310 309 310 310 308 305 304 304 305 304 303 303 304 304 304 305 305 305 306 306 307 309 316 315 314 319 327 323 335 331 323 320 319 319 323 328 328 323 324 331 333 332 331 327 328 335 344
309 310 309 309 308 304 304 304 304 304 303 303 303 304 304 305 305 305 306 307 307 313 316 315 314 324 329 326 329 329 324 320 320 321 323 327 326 323 331 332 333 331 329 325 329 331 344
309 308 309 309 308 304 303 303 303 304 303 303 303 304 304 305 305 306 306 307 309 316 316 316 319 327 329 330 330 327 325 322 321 323 324 325 325 326 330 332 332 329 329 330 329 333 343
309 308 308 309 308 305 303 303 303 304 303 303 303 304 304 304 305 306 306 308 318 318 320 324 326 328 329 332 329 327 325 323 323 322 323 325 326 327 328 330 333 330 331 330 330 332 339
308 308 307 307 306 305 305 304 303 303 303 303 303 303 304 304 305 305 306 309 328 327 326 329 327 332 329 330 330 325 323 323 323 323 322 324 326 326 328 330 333 334 335 331 330 330 332
306 306 305 305 305 305 305 305 305 304 303 303 303 303 304 304 306 306 307 317 321 322 323 329 330 328 327 329 330 325 324 321 322 321 323 323 324 326 329 331 332 333 332 333 331 329 332
306 306 306 305 305 305 305 305 305 305 303 303 303 303 303 304 306 313 315 319 320 321 320 325 326 331 332 329 330 326 323 323 322 322 322 322 325 327 328 328 330 329 331 332 331 330 329
306 307 306 306 305 305 304 304 304 304 304 303 303 303 303 304 312 311 312 316 319 321 324 326 324 326 329 329 331 329 325 324 324 322 323 322 325 327 327 328 328 328 332 331 332 329 329
307 306 306 306 305 305 305 304 304 304 304 303 303 303 303 303 307 312 314 313 318 321 330 327 325 328 328 328 331 330 326 324 323 323 322 323 325 326 329 328 329 328 330 330 332 332 330
306 306 306 305 305 305 304 304 304 303 304 303 303 303 304 305 308 310 312 315 319 324 332 326 325 326 328 327 328 329 325 324 324 324 324 323 326 326 328 331 330 329 329 330 332 327 329
305 304 303 304 305 305 304 303 303 303 304 303 302 303 303 306 309 311 310 316 318 327 327 326 326 326 328 327 326 328 325 324 323 322 325 328 327 327 329 331 329 328 330 332 330 329 330
304 304 303 305 305 304 303 303 303 303 304 303 303 303 307 309 309 309 313 317 323 326 325 327 327 327 328 327 326 328 327 325 322 323 328 330 330 329 330 328 328 328 328 331 337 333 331
305 304 303 304 304 303 302 302 303 303 304 303 304 307 309 311 312 312 315 316 321 324 325 325 326 327 327 327 326 327 328 326 324 324 327 329 330 330 331 329 328 330 329 329 330 331 332
306 305 303 303 303 303 302 302 302 302 303 303 306 310 313 312 314 315 317 317 317 321 323 324 326 328 330 327 326 327 328 329 329 327 326 328 333 330 331 329 328 327 331 329 327 332 337
305 305 303 303 303 302 302 302 302 303 303 305 309 314 315 318 318 316 315 316 316 317 319 321 322 324 327 330 327 326 329 329 330 329 327 327 327 330 330 327 326 327 330 328 327 329 331
305 305 304 302 302 302 302 302 302 303 303 306 309 313 315 316 319 319 317 315 315 316 318 319 320 321 322 327 330 327 327 329 330 330 329 328 327 329 330 330 329 327 327 329 334 336 335
304 304 304 302 302 302 302 303 303 303 303 306 310 312 312 314 318 319 320 318 316 316 316 317 318 321 322 324 333 333 332 330 329 329 329 328 328 328 329 330 328 328 328 329 333 333 332
304 304 303 303 302 302 303 302 303 303 303 305 309 314 316 316 317 321 321 322 320 318 317 317 318 320 321 325 330 331 330 331 330 329 339 333 327 329 329 333 329 330 330 330 328 329 329
304 304 304 304 303 303 302 302 303 303 303 305 310 312 315 317 317 317 320 323 322 322 319 318 318 319 320 323 331 329 328 330 332 334 339 329 330 330 329 330 331 331 330 329 327 330 331
304 304 303 303 303 302 301 302 303 303 303 306 308 312 314 315 315 318 319 323 328 325 321 323 319 319 320 321 330 331 329 330 336 335 332 328 333 334 334 330 329 330 332 330 329 329 331
304 304 303 303 302 302 302 302 303 303 304 307 309 309 312 314 315 316 318 319 320 321 322 321 322 320 320 321 326 325 325 326 329 335 334 329 330 336 333 333 332 332 331 333 331 330 329
303 303 303 303 303 303 303 303 303 303 303 306 307 307 311 315 314 315 316 317 319 320 321 323 322 327 322 323 329 327 325 327 328 332 333 336 338 338 332 334 335 331 333 333 334 332 337
303 303 303 303 303 303 304 304 303 303 304 306 306 307 310 314 314 313 316 316 317 321 326 325 326 331 328 325 331 332 331 330 329 332 334 330 337 336 335 334 337 334 333 336 334 336 341
302 302 303 302 302 302 302 303 303 303 304 304 305 306 308 312 313 313 314 314 318 319 325 329 328 328 328 332 332 335 333 331 335 335 335 334 335 337 337 337 334 335 338 335 337 337 338
302 302 302 301 301 302 302 304 304 303 304 304 305 306 307 310 311 312 313 313 314 317 324 327 323 330 328 330 332 330 328 330 332 338 340 341 339 341 339 336 335 336 336 337 337 342 343
302 301 300 300 300 301 301 303 303 304 303 303 305 305 307 309 309 309 309 310 312 313 317 317 323 329 330 330 332 331 329 328 331 337 343 342 343 341 343 343 344 343 334 340 345 343 342
300 300 300 300 302 302 302 301 303 303 302 303 304 305 307 308 309 309 308 308 308 309 313 315 318 326 330 333 331 332 330 329 330 331 336 342 337 339 342 351 347 345 346 345 341 341 340